Starlink 32523

operational
NORAD ID: 62165 Int'l Des: 2024-225 Owner: SPXS Country: US Constellation: starlink
LEOCIRCULAR

Starlink 32523について

説明を読み込み中...

リアルタイム位置

3D地球を読み込み中...

次回通過

高度履歴

Altitude vs Time

uPlot chart will show altitude changes over time

軌道要素

1 62165U 24225C 25306.51610830 .00004361 00000-0 37302-3 0 9997
2 62165 69.9990 125.1855 0002719 266.5744 93.5104 14.98333066 50824
Epoch: Nov 2, 2025 • Age: 29 hours

現在のステータス

高度 579.2 km
速度 7.57 km/s
衛星直下点 42.77°N, 163°W
打ち上げ日 Nov 30, 2024
運用期間 0.9 years
タイプ internet

技術仕様

分類 Payload
質量 730.00 kg
乾燥質量 700.00 kg
総質量 730.00 kg
長さ 0.30 m
直径 4.10 m
スパン 29.00 m
形状 Box + pan
製造者 SPXS
バスタイプ Starlink V2M
フェーズステータス In Orbit
所有者/国 SPXS/US

大規模コンステレーション

Loading constellations...